Weather History for KDUX - August, 2013

Change the Weather History Date:

Tuesday, August 6, 2013

  Actual Average (KBGD) Record (KBGD)
Temperature  
Mean Temperature 82 °F 82 °F  
Max Temperature 99 °F 94 °F 105 °F (2013)
Min Temperature 65 °F 70 °F 57 °F (1997)
Degree Days  
Heating Degree Days 0 0  
Month to date heating degree days 0  
Since 1 June heating degree days 3  
Since 1 July heating degree days 0  
Cooling Degree Days 17 17  
Month to date cooling degree days 102  
Year to date cooling degree days 1183  
Since 1 June cooling degree days 986  
Growing Degree Days 32 (Base 50)    
Moisture  
Dew Point 58 °F    
Average Humidity 51    
Maximum Humidity 88    
Minimum Humidity 17    
Precipitation  
Precipitation 0.11 in 0.09 in 1.59 in (1997)
Month to date precipitation 0.50  
Year to date precipitation 13.34  
Snow  
Snow 0.00 in - 0.00 in (2013)
Month to date snowfall  
Since 1 June snowfall  
Since 1 July snowfall  
Snow Depth -    
Sea Level Pressure  
Sea Level Pressure 29.94 in    
Wind  
Wind Speed 8 mph (WNW)    
Max Wind Speed 22 mph    
Max Gust Speed 33 mph    
Visibility 10 miles    
Events Rain    
T = Trace of Precipitation, MM = Missing Value Source: NWS Daily Summary

Daily Weather History Graph

Daily Weather History Graph

Search for Another Location

Airport or City:

Trip Planner

Search our weather history database for the weather conditions in past years. The results will help you decide how hot, cold, wet, or windy it might be!

Date:

Astronomy

Aug. 06, 2013 Rise Set
Actual Time 6:59 AM CDT 8:47 PM CDT
Civil Twilight 6:32 AM CDT 9:15 PM CDT
Nautical Twilight 5:58 AM CDT 9:48 PM CDT
Astronomical Twilight 5:22 AM CDT 10:24 PM CDT
Moon 6:51 AM CDT (8/6) 8:26 PM CDT (8/6)
Length of Visible Light 14h 43m
Length of Day
13h 47m
Waning Crescent, 0% of the Moon is Illuminated
Aug 6
Waning Crescent
Aug 6
New
Aug 14
First Quarter
Aug 20
Full
Aug 28
Last Quarter

Hourly Weather History & Observations

Time (CDT) Temp. Heat Index Dew Point Humidity Pressure Visibility Wind Dir Wind Speed Gust Speed Precip Events Conditions
12:15 AM 73.4 °F - 55.6 °F 54% 29.96 in 10.0 mi South 8.1 mph - N/A   Clear
12:35 AM 72.7 °F - 56.1 °F 56% 29.96 in 10.0 mi South 6.9 mph - N/A   Clear
12:55 AM 72.7 °F - 56.7 °F 57% 29.96 in 10.0 mi SSE 6.9 mph - N/A   Clear
1:15 AM 73.9 °F - 56.3 °F 54% 29.96 in 10.0 mi SSE 6.9 mph - N/A   Scattered Clouds
1:35 AM 75.7 °F - 55.4 °F 49% 29.96 in 10.0 mi South 6.9 mph - N/A   Scattered Clouds
1:55 AM 76.6 °F - 54.7 °F 46% 29.96 in 10.0 mi South 9.2 mph - N/A   Scattered Clouds
2:15 AM 74.5 °F - 57.2 °F 55% 29.99 in 10.0 mi North 16.1 mph 33.4 mph N/A   Scattered Clouds
2:35 AM 76.1 °F - 56.3 °F 50% 29.98 in 10.0 mi NNW 5.8 mph - N/A   Clear
2:55 AM 73.9 °F - 56.5 °F 54% 29.97 in 10.0 mi NE 6.9 mph - N/A   Clear
3:15 AM 72.7 °F - 56.3 °F 56% 29.96 in 10.0 mi East 5.8 mph - N/A   Clear
3:35 AM 71.6 °F - 57.4 °F 61% 29.96 in 10.0 mi ESE 9.2 mph - N/A   Clear
3:55 AM 70.9 °F - 57.2 °F 62% 29.96 in 10.0 mi East 6.9 mph - N/A   Clear
4:15 AM 71.2 °F - 57.2 °F 61% 29.96 in 10.0 mi ESE 6.9 mph - N/A   Clear
4:35 AM 70.2 °F - 58.1 °F 65% 29.95 in 10.0 mi SE 5.8 mph - N/A   Clear
4:55 AM 70.0 °F - 58.3 °F 66% 29.95 in 10.0 mi SE 5.8 mph - N/A   Clear
5:15 AM 67.3 °F - 58.5 °F 73% 29.94 in 10.0 mi SE 5.8 mph - N/A   Clear
5:35 AM 68.7 °F - 57.4 °F 67% 29.94 in 10.0 mi SE 8.1 mph - N/A   Clear
5:55 AM 67.3 °F - 57.9 °F 72% 29.93 in 10.0 mi SE 9.2 mph - N/A   Clear
6:15 AM 67.3 °F - 57.6 °F 71% 29.94 in 10.0 mi SSE 6.9 mph - N/A   Clear
6:35 AM 67.3 °F - 57.6 °F 71% 29.95 in 10.0 mi NNW 11.5 mph 16.1 mph N/A   Clear
6:55 AM 67.8 °F - 58.3 °F 71% 29.96 in 10.0 mi NNW 5.8 mph - N/A   Clear
7:15 AM 65.8 °F - 60.3 °F 82% 29.96 in 10.0 mi NNW 9.2 mph - N/A   Clear
7:35 AM 66.0 °F - 62.1 °F 87% 29.97 in 10.0 mi NW 4.6 mph - N/A   Clear
7:55 AM 67.1 °F - 63.3 °F 88% 29.97 in 10.0 mi North 6.9 mph - N/A   Clear
8:15 AM 69.1 °F - 64.6 °F 86% 29.97 in 10.0 mi North 4.6 mph - N/A   Clear
8:35 AM 71.4 °F - 64.9 °F 80% 29.96 in 10.0 mi Calm Calm - N/A   Clear
8:55 AM 74.7 °F - 64.2 °F 70% 29.97 in 5.0 mi Calm Calm - N/A   Haze
9:15 AM 76.1 °F - 64.4 °F 67% 29.98 in 7.0 mi NW 5.8 mph - N/A   Clear
9:35 AM 77.0 °F - 64.4 °F 65% 29.97 in 10.0 mi Calm Calm - N/A   Clear
9:55 AM 78.6 °F - 64.4 °F 62% 29.98 in 10.0 mi West 5.8 mph - N/A   Clear
10:15 AM 79.7 °F - 63.5 °F 58% 29.98 in 10.0 mi West 6.9 mph - N/A   Clear
10:35 AM 81.9 °F 83.5 °F 64.8 °F 56% 29.97 in 10.0 mi West 5.8 mph - N/A   Clear
10:55 AM 83.3 °F 84.8 °F 64.6 °F 53% 29.98 in 10.0 mi WNW 6.9 mph - N/A   Clear
11:15 AM 84.9 °F 85.6 °F 62.6 °F 47% 29.98 in 10.0 mi NW 6.9 mph - N/A   Clear
11:35 AM 85.8 °F 86.1 °F 61.7 °F 44% 29.98 in 10.0 mi NW 8.1 mph - N/A   Clear
11:55 AM 87.3 °F 87.2 °F 61.2 °F 41% 29.98 in 10.0 mi WNW 6.9 mph - N/A   Clear
12:15 PM 88.5 °F 88.9 °F 62.2 °F 41% 29.98 in 10.0 mi WNW 8.1 mph - N/A   Clear
12:35 PM 88.3 °F 88.9 °F 62.2 °F 42% 29.98 in 10.0 mi WNW 6.9 mph - N/A   Clear
12:55 PM 89.6 °F 89.8 °F 61.9 °F 39% 29.98 in 10.0 mi NNW 3.5 mph - N/A   Clear
1:15 PM 90.0 °F 90.3 °F 62.1 °F 39% 29.97 in 10.0 mi NNW 3.5 mph - N/A   Clear
1:35 PM 91.6 °F 92.0 °F 61.9 °F 37% 29.96 in 10.0 mi Calm Calm - N/A   Clear
1:55 PM 93.2 °F 92.9 °F 60.4 °F 33% 29.96 in 10.0 mi West 8.1 mph - N/A   Clear
2:15 PM 94.1 °F 93.5 °F 58.8 °F 31% 29.95 in 10.0 mi West 5.8 mph - N/A   Clear
2:35 PM 94.6 °F 94.7 °F 60.8 °F 32% 29.95 in 10.0 mi NNW 9.2 mph - N/A   Clear
2:55 PM 96.3 °F 95.5 °F 58.3 °F 28% 29.93 in 10.0 mi West 6.9 mph - N/A   Clear
3:15 PM 97.3 °F 96.6 °F 57.7 °F 27% 29.93 in 10.0 mi West 9.2 mph - N/A   Clear
3:35 PM 96.8 °F 95.8 °F 57.6 °F 27% 29.92 in 10.0 mi NNW 6.9 mph - N/A   Clear
3:55 PM 97.9 °F 96.6 °F 56.3 °F 25% 29.91 in 10.0 mi WSW 8.1 mph 17.3 mph N/A   Clear
4:15 PM 98.2 °F 96.3 °F 54.1 °F 23% 29.90 in 10.0 mi NW 8.1 mph 16.1 mph N/A   Clear
4:35 PM 98.2 °F 96.3 °F 54.3 °F 23% 29.90 in 7.0 mi WNW 13.8 mph - N/A   Clear
4:55 PM 97.3 °F - 49.6 °F 20% 29.89 in 7.0 mi SW 13.8 mph - N/A   Clear
5:15 PM 99.1 °F - 47.1 °F 17% 29.88 in 10.0 mi WSW 8.1 mph 19.6 mph N/A   Clear
5:35 PM 99.5 °F - 48.0 °F 17% 29.87 in 10.0 mi West 8.1 mph - N/A   Clear
5:55 PM 99.7 °F - 47.8 °F 17% 29.87 in 10.0 mi SSW 6.9 mph 16.1 mph N/A   Clear
6:15 PM 98.1 °F - 51.1 °F 20% 29.86 in 10.0 mi SSW 13.8 mph - N/A   Clear
6:35 PM 97.7 °F - 50.5 °F 20% 29.86 in 10.0 mi WSW 10.4 mph - N/A   Clear
6:55 PM 95.9 °F - 51.1 °F 22% 29.86 in 10.0 mi WSW 4.6 mph - N/A   Clear
7:15 PM 95.7 °F - 50.9 °F 22% 29.86 in 10.0 mi South 5.8 mph - N/A   Clear
7:35 PM 96.1 °F - 51.4 °F 22% 29.86 in 10.0 mi SW 10.4 mph - N/A   Clear
7:55 PM 92.8 °F - 49.6 °F 23% 29.87 in 10.0 mi WSW 6.9 mph - N/A   Clear
8:15 PM 92.3 °F - 50.0 °F 24% 29.88 in 10.0 mi WNW 12.7 mph - N/A   Clear
8:35 PM 88.2 °F 86.7 °F 56.1 °F 34% 29.90 in 10.0 mi NW 18.4 mph 31.1 mph N/A   Clear
8:55 PM 86.0 °F 85.2 °F 58.3 °F 39% 29.91 in 10.0 mi NNW 20.7 mph - N/A   Scattered Clouds
9:15 PM 84.0 °F 83.6 °F 58.5 °F 42% 29.92 in 10.0 mi North 15.0 mph 20.7 mph N/A   Clear
9:35 PM 79.0 °F - 63.0 °F 58% 29.93 in 10.0 mi NE 21.9 mph 33.4 mph N/A   Scattered Clouds
9:55 PM 73.6 °F - 62.1 °F 67% 29.95 in 10.0 mi NNE 18.4 mph 26.5 mph N/A   Clear
10:15 PM 72.0 °F - 61.2 °F 69% 30.00 in 10.0 mi North 9.2 mph 15.0 mph N/A   Scattered Clouds
10:35 PM 68.4 °F - 64.2 °F 87% 30.01 in 3.0 mi East 15.0 mph 19.6 mph 0.10 in Rain Light Rain
10:55 PM 68.9 °F - 64.4 °F 86% 29.97 in 10.0 mi NE 16.1 mph - 0.11 in   Scattered Clouds
11:15 PM 69.1 °F - 63.9 °F 83% 29.96 in 10.0 mi ENE 12.7 mph - N/A   Clear
11:35 PM 70.0 °F - 63.1 °F 79% 29.96 in 10.0 mi East 8.1 mph - N/A Rain Light Rain
11:55 PM 69.3 °F - 64.4 °F 84% 29.97 in 10.0 mi NW 10.4 mph - N/A Rain Rain